LOT496 ESGG-EPWA

Flight info

Callsign LOT496
Flight time 1h 13m
Altitude 33000
Route LUKAX DCT LARMA DCT NASOK DCT SORIX
Aircraft E75L/M-SDE3GILORVW/S

Departure

Time 2026-05-04 16:24
Airport Göteborg Landvetter Airport (ESGG)

Arrival

Time 2026-05-04 17:37
Airport Warsaw Chopin Airport (EPWA)
Time Latitude Longitude Altitude Speed Heading
2026-05-04 16:09 57.66973 12.29500 512 ft 0 kts 116°
2026-05-04 16:16 57.66973 12.29499 512 ft 0 kts 116°
2026-05-04 16:16 57.66992 12.29427 510 ft 2 kts 116°
2026-05-04 16:17 57.67003 12.29398 509 ft 2 kts 151°
2026-05-04 16:18 57.67035 12.29400 509 ft 0 kts 205°
2026-05-04 16:18 57.67034 12.29400 509 ft 0 kts 205°
2026-05-04 16:20 57.67003 12.29343 508 ft 6 kts 259°
2026-05-04 16:20 57.67052 12.29200 508 ft 14 kts 12°
2026-05-04 16:21 57.67336 12.29453 510 ft 12 kts 25°
2026-05-04 16:22 57.67429 12.29396 509 ft 9 kts 298°
2026-05-04 16:22 57.67415 12.29032 508 ft 10 kts 233°
2026-05-04 16:23 57.65888 12.27619 979 ft 181 kts 209°
2026-05-04 16:24 57.60780 12.25686 5855 ft 226 kts 150°
2026-05-04 16:25 57.58049 12.28404 8194 ft 232 kts 157°
2026-05-04 16:26 57.58134 12.40364 11951 ft 316 kts 68°
2026-05-04 16:26 57.56605 12.52556 14464 ft 356 kts 134°
2026-05-04 16:27 57.53080 12.59201 16735 ft 370 kts 138°
2026-05-04 16:28 57.47557 12.69670 19910 ft 389 kts 139°
2026-05-04 16:28 57.41751 12.80576 22731 ft 408 kts 139°
2026-05-04 16:29 57.33304 12.95293 26036 ft 428 kts 145°
2026-05-04 16:30 57.26101 13.05292 28239 ft 441 kts 148°
2026-05-04 16:31 57.21088 13.12029 29588 ft 451 kts 148°
2026-05-04 16:31 57.13361 13.22357 31433 ft 465 kts 148°
2026-05-04 16:32 57.05367 13.33001 32906 ft 478 kts 148°
2026-05-04 16:33 56.94617 13.47405 32931 ft 480 kts 148°
2026-05-04 16:34 56.86529 13.58243 32879 ft 480 kts 148°
2026-05-04 16:35 56.70768 13.80662 32882 ft 485 kts 140°
2026-05-04 16:36 56.63438 13.93327 32910 ft 485 kts 141°
2026-05-04 16:37 56.56065 14.05900 32896 ft 484 kts 141°
2026-05-04 16:38 56.46253 14.22541 32901 ft 485 kts 141°
2026-05-04 16:39 56.33953 14.43234 32899 ft 485 kts 141°
2026-05-04 16:40 56.24062 14.59738 32889 ft 485 kts 141°
2026-05-04 16:41 56.11688 14.80212 32878 ft 484 kts 142°
2026-05-04 16:43 55.99270 15.00571 32858 ft 488 kts 142°
2026-05-04 16:43 55.91763 15.12792 32858 ft 486 kts 141°
2026-05-04 16:45 55.76741 15.37040 32858 ft 487 kts 141°
2026-05-04 16:46 55.64211 15.57065 32858 ft 486 kts 141°
2026-05-04 16:47 55.54180 15.72976 32857 ft 486 kts 142°
2026-05-04 16:48 55.44115 15.88799 32858 ft 486 kts 142°
2026-05-04 16:49 55.34014 16.04589 32864 ft 486 kts 142°
2026-05-04 16:50 55.23920 16.20255 32876 ft 486 kts 142°
2026-05-04 16:51 55.16313 16.31985 32855 ft 486 kts 142°
2026-05-04 16:52 55.06168 16.47533 32866 ft 486 kts 142°
2026-05-04 16:53 54.98547 16.59137 32862 ft 489 kts 142°
2026-05-04 16:54 54.88322 16.74614 32931 ft 497 kts 142°
2026-05-04 16:55 54.72677 16.98089 32939 ft 495 kts 141°
2026-05-04 16:56 54.59720 17.17342 32939 ft 494 kts 141°
2026-05-04 16:57 54.51897 17.28884 32939 ft 494 kts 141°
2026-05-04 16:58 54.41445 17.44210 32939 ft 494 kts 141°
2026-05-04 17:00 54.26001 17.66666 32939 ft 494 kts 142°
2026-05-04 17:01 54.12803 17.85672 32939 ft 494 kts 142°
2026-05-04 17:02 54.02329 18.00639 32939 ft 494 kts 142°
2026-05-04 17:03 53.94423 18.11871 32939 ft 494 kts 142°
2026-05-04 17:03 53.86512 18.23051 32938 ft 494 kts 142°
2026-05-04 17:04 53.75951 18.37871 32938 ft 494 kts 142°
2026-05-04 17:05 53.65386 18.52623 32924 ft 494 kts 142°
2026-05-04 17:06 53.57435 18.63655 32926 ft 494 kts 142°
2026-05-04 17:07 53.50695 18.72964 32885 ft 491 kts 143°
2026-05-04 17:07 53.44479 18.81510 32885 ft 492 kts 143°
2026-05-04 17:08 53.36519 18.92406 32885 ft 492 kts 143°
2026-05-04 17:09 53.31208 18.99646 32885 ft 493 kts 143°
2026-05-04 17:09 53.25909 19.06845 32885 ft 495 kts 142°
2026-05-04 17:10 53.12508 19.24948 32885 ft 496 kts 141°
2026-05-04 17:11 53.07151 19.32143 32885 ft 498 kts 141°
2026-05-04 17:11 53.01738 19.39389 31388 ft 492 kts 141°
2026-05-04 17:12 52.99113 19.42896 30427 ft 475 kts 141°
2026-05-04 17:12 52.94160 19.49497 28497 ft 447 kts 142°
2026-05-04 17:13 52.87176 19.58767 25508 ft 417 kts 143°
2026-05-04 17:14 52.80758 19.67251 23177 ft 376 kts 144°
2026-05-04 17:14 52.78742 19.69910 22533 ft 363 kts 144°
2026-05-04 17:14 52.74971 19.74872 21554 ft 332 kts 144°
2026-05-04 17:15 52.73223 19.77170 21272 ft 314 kts 144°
2026-05-04 17:15 52.69935 19.81795 20913 ft 314 kts 135°
2026-05-04 17:16 52.67538 19.87855 20884 ft 318 kts 121°
2026-05-04 17:16 52.64173 19.97239 20885 ft 316 kts 126°
2026-05-04 17:17 52.62909 20.00186 20885 ft 316 kts 127°
2026-05-04 17:17 52.59161 20.09155 20885 ft 316 kts 126°
2026-05-04 17:18 52.57918 20.12141 20884 ft 316 kts 126°
2026-05-04 17:18 52.55404 20.18187 20034 ft 328 kts 126°
2026-05-04 17:19 52.52806 20.24431 18544 ft 339 kts 126°
2026-05-04 17:19 52.50129 20.30852 17042 ft 344 kts 126°
2026-05-04 17:20 52.47421 20.37335 15539 ft 347 kts 126°
2026-05-04 17:20 52.44693 20.43850 14031 ft 346 kts 126°
2026-05-04 17:20 52.43315 20.47056 13281 ft 345 kts 127°
2026-05-04 17:21 52.40617 20.53467 11780 ft 342 kts 126°
2026-05-04 17:21 52.37958 20.59852 10274 ft 338 kts 126°
2026-05-04 17:22 52.36634 20.62986 9526 ft 337 kts 126°
2026-05-04 17:22 52.35305 20.66133 8773 ft 336 kts 127°
2026-05-04 17:23 52.31369 20.75427 6864 ft 319 kts 127°
2026-05-04 17:23 52.30157 20.78285 6907 ft 293 kts 127°
2026-05-04 17:23 52.27994 20.83373 6909 ft 251 kts 127°
2026-05-04 17:24 52.27009 20.85680 6915 ft 249 kts 127°
2026-05-04 17:24 52.23996 20.92728 6639 ft 273 kts 127°
2026-05-04 17:25 52.22910 20.95263 6097 ft 288 kts 127°
2026-05-04 17:25 52.20622 21.00613 5049 ft 284 kts 127°
2026-05-04 17:26 52.18367 21.05866 4992 ft 285 kts 127°
2026-05-04 17:26 52.14893 21.13355 4989 ft 282 kts 144°
2026-05-04 17:27 52.11510 21.16384 4773 ft 269 kts 153°
2026-05-04 17:27 52.08268 21.19225 3976 ft 258 kts 153°
2026-05-04 17:28 52.05313 21.21806 3998 ft 234 kts 154°
2026-05-04 17:29 52.00997 21.25574 3997 ft 234 kts 154°
2026-05-04 17:29 51.96621 21.28333 3774 ft 208 kts 192°
2026-05-04 17:30 51.94279 21.23996 3095 ft 149 kts 252°
2026-05-04 17:31 51.94353 21.20825 3006 ft 144 kts 287°
2026-05-04 17:31 51.97127 21.15990 2993 ft 149 kts 315°
2026-05-04 17:32 51.98665 21.13789 2993 ft 150 kts 315°
2026-05-04 17:33 52.02018 21.09403 2995 ft 152 kts 329°
2026-05-04 17:33 52.02952 21.08584 2992 ft 151 kts 328°
2026-05-04 17:34 52.05748 21.06150 2559 ft 151 kts 328°
2026-05-04 17:34 52.06672 21.05347 2356 ft 150 kts 329°
2026-05-04 17:35 52.09406 21.02967 1760 ft 145 kts 329°
2026-05-04 17:35 52.11202 21.01403 1330 ft 137 kts 328°
2026-05-04 17:35 52.11990 21.00715 1152 ft 122 kts 328°
2026-05-04 17:36 52.12733 21.00068 1015 ft 124 kts 328°
2026-05-04 17:36 52.13458 20.99433 851 ft 122 kts 328°
2026-05-04 17:36 52.14209 20.98764 688 ft 122 kts 326°
2026-05-04 17:36 52.14948 20.98132 511 ft 122 kts 329°
2026-05-04 17:37 52.15694 20.97483 384 ft 121 kts 328°
2026-05-04 17:37 52.16396 20.96872 367 ft 102 kts 329°
2026-05-04 17:37 52.16814 20.96534 366 ft 37 kts 345°
2026-05-04 17:37 52.16986 20.96506 367 ft 17 kts
2026-05-04 17:38 52.17047 20.96520 366 ft 0 kts 19°
2026-05-04 17:38 52.17062 20.96530 366 ft 8 kts 26°
2026-05-04 17:39 52.17123 20.96670 366 ft 11 kts 63°
2026-05-04 17:39 52.17155 20.96827 366 ft 13 kts 115°
2026-05-04 17:39 52.17083 20.96907 366 ft 11 kts 152°
2026-05-04 17:40 52.17018 20.96964 366 ft 10 kts 152°
2026-05-04 17:40 52.16939 20.97031 366 ft 14 kts 152°
2026-05-04 17:40 52.16898 20.97135 366 ft 10 kts 77°
2026-05-04 17:40 52.16911 20.97218 366 ft 0 kts 76°
2026-05-04 17:41 52.16911 20.97221 366 ft 0 kts 76°